This is the latest recevied weather packets stored in our database for station/object KI5PFS. If no packets are shown the sender has not sent any weather packets the latest 10 day(s).
| Time | Temp. | Humidity | Pressure | Rain* | Wind** | Luminosity | Snow |
|---|---|---|---|---|---|---|---|
| 1777099803 | 18.89° C | 86% | 1003.8 hPa | 0 mm | - | - | - |
| 1777099203 | 18.89° C | 86% | 1003.8 hPa | 0 mm | - | - | - |
| 1777098603 | 18.89° C | 85% | 1003.7 hPa | 0 mm | - | - | - |
| 1777098003 | 20° C | 84% | 1003.7 hPa | 0 mm | - | - | - |
| 1777097403 | 20° C | 84% | 1003.8 hPa | 0 mm | - | - | - |
| 1777096803 | 20° C | 83% | 1003.9 hPa | 0 mm | - | - | - |
| 1777096203 | 20° C | 83% | 1004 hPa | 0 mm | - | - | - |
| 1777095603 | 20° C | 82% | 1004.1 hPa | 0 mm | - | - | - |
| 1777095003 | 20° C | 80% | 1003.9 hPa | 0 mm | - | - | - |
| 1777094404 | 20° C | 80% | 1003.4 hPa | 0 mm | - | - | - |
| 1777093804 | 20° C | 79% | 1003.1 hPa | 0 mm | - | - | - |
| 1777093204 | 21.11° C | 78% | 1003 hPa | 0 mm | - | - | - |
| 1777092603 | 21.11° C | 77% | 1002.9 hPa | 0 mm | - | - | - |
| 1777092004 | 21.11° C | 76% | 1002.9 hPa | 0 mm | - | - | - |
| 1777091403 | 21.11° C | 75% | 1003.3 hPa | 0 mm | - | - | - |
| 1777090803 | 21.11° C | 74% | 1003.4 hPa | 0 mm | - | - | - |
| 1777090203 | 22.22° C | 73% | 1003.3 hPa | 0 mm | - | - | - |
| 1777089603 | 22.22° C | 72% | 1003.4 hPa | 0 mm | - | - | - |
| 1777089003 | 22.22° C | 69% | 1003.4 hPa | 0 mm | - | - | - |
| 1777088403 | 23.89° C | 53% | 1003 hPa | 0 mm | - | - | - |
| 1777087803 | 23.89° C | 54% | 1002.3 hPa | 0 mm | - | - | - |
| 1777087203 | 25° C | 53% | 1001.9 hPa | 0 mm | - | - | - |
| 1777086603 | 25° C | 51% | 1001.6 hPa | 0 mm | - | - | - |
| 1777086003 | 25° C | 51% | 1001.4 hPa | 0 mm | - | - | - |
| 1777085404 | 26.11° C | 48% | 1001.4 hPa | 0 mm | - | - | - |
* Rain latest hour (hover to see other rain measurements)
** Current wind speed in m/s (hover to see current wind gust speed)